[[{"header":{"parameterUnit":"m.s-1","parameterCategory":1,"la1":30.2991,"la2":30.254,"lo1":-89.0895,"lo2":-89.0444,"dy":0.0017,"dx":0.0017,"nx":28,"ny":28,"refTime":"2024-08-10T21:00:00:Z","depth":0,"parameterNumber":2,"parameterNumberName":"U-component_of_WINDS"},"data":[0,0,0,0,0,0,0,0,0,0,0,0,0,0,0,0,0,0,0,0,0,0,0,0,0,0,0,0,0,0,0,0,0,0,0,0,0,0,0,0,0,0,0,0,0,0,0,0,0,0,0,0,0,0,0,0,0,0,2.8047,2.8048,0,2.8115,2.8116,2.8117,2.804,2.8037,2.8035,2.8032,2.8102,2.8106,2.8111,0,0,0,0,0,0,0,0,0,0,0,0,0,2.7852,2.7856,2.8047,2.8048,2.8049,2.8115,2.8116,2.8117,2.8041,2.8037,2.8034,2.8031,2.81,2.8106,2.8111,0,0,0,0,0,0,0,0,0,0,0,0,0,2.793,2.7857,2.8047,2.8019,2.8017,2.8115,2.8116,2.8117,2.8042,2.8037,2.8033,2.8029,2.8099,2.8105,2.8112,2.8241,0,0,2.8133,2.8136,0,0,0,0,0,0,0,0,2.7926,2.7937,2.8022,2.8021,2.8019,2.8065,2.8073,2.8159,2.8043,2.8032,2.8032,2.8027,2.8093,2.81,2.8122,2.8245,2.8248,2.8134,2.8138,2.8141,2.8143,0,0,0,0,0,0,0,2.792,2.7934,2.8074,2.8024,2.8022,2.8003,2.8009,2.8089,2.8086,2.8033,2.8027,2.8037,2.8091,2.8116,2.8124,2.8249,2.8133,2.8139,2.8144,2.8146,2.8479,2.8484,0,0,0,0,0,0,2.7918,2.793,2.8072,2.8076,2.7961,2.801,2.8017,2.8055,2.8085,2.8086,2.804,2.8033,2.8107,2.8116,2.8126,2.8278,2.8141,2.8147,2.8151,2.8475,2.848,2.8485,0,0,0,0,0,0,2.7914,2.7931,2.8069,2.8002,2.8018,2.8018,2.8061,2.8058,2.8083,2.8091,2.809,2.8066,2.8103,2.8116,2.8213,2.8279,2.815,2.8156,2.8469,2.8476,2.8483,2.8584,0,0,0,0,0,0,2.7909,2.793,2.7979,2.8003,2.8022,2.8156,2.8065,2.8063,2.8095,2.8086,2.8114,2.8115,2.8101,2.8203,2.822,2.8287,2.8162,2.8463,2.8472,2.8481,2.8575,2.8594,2.861,0,0,0,0,0,2.7902,2.8006,2.7982,2.8,2.8083,2.8159,2.817,2.8151,2.81,2.815,2.8155,2.8114,2.827,2.8214,2.8232,2.8302,2.8459,2.847,2.848,2.8567,2.859,2.861,0,0,0,0,0,0,2.799,2.8008,2.7983,2.8097,2.8127,2.8146,2.8208,2.8177,2.8222,2.8212,2.8187,2.8194,2.8297,2.8309,2.8246,2.8428,2.8356,2.8371,2.8416,2.8438,2.8455,2.845,2.8167,0,0,0,0,0,2.8023,2.8083,2.8096,2.8196,2.8212,2.8208,2.824,2.8224,2.8254,2.8266,2.8278,2.831,2.8365,2.8403,2.8454,2.8577,2.8582,2.8634,2.8652,2.8666,2.8679,2.8744,2.8767,2.852,2.852,2.852,0,0,2.8091,2.8108,2.8148,2.8214,2.8235,2.8298,2.8219,2.8289,2.8336,2.8277,2.8369,2.8379,2.8412,2.8522,2.8571,2.8535,2.8748,2.868,2.8691,2.8696,2.8757,2.878,2.8801,2.8528,2.8526,2.8525,0,0,2.8246,2.8266,2.8351,2.8374,2.8408,2.8404,2.8424,2.8449,2.8453,2.8545,2.8502,2.8557,2.8654,2.8679,2.8704,2.887,2.8835,2.8888,2.898,2.9043,2.9063,2.908,2.9138,2.9159,2.8901,2.8901,2.8901,0,2.8327,2.842,2.8399,2.8472,2.8502,2.8452,2.8537,2.8561,2.861,2.8632,2.8591,2.8711,2.873,2.8844,2.8885,2.8908,2.893,2.8884,2.9062,2.9079,2.9094,2.9149,2.9171,2.8907,2.8907,2.8906,2.8906,0,2.8517,2.8582,2.8647,2.8694,2.8732,2.8811,2.8802,2.8842,2.8823,2.8823,2.8917,2.8938,2.8993,2.9019,2.9001,2.9132,2.9108,2.9065,2.8992,2.9124,2.9176,2.9197,2.8916,2.8914,2.8912,2.8911,0,0,2.8729,2.8764,2.8788,2.8809,2.8842,2.8892,2.8969,2.9023,2.9058,2.9093,2.9157,2.924,2.92,2.9229,2.9213,2.927,2.9398,2.9219,2.922,2.9251,2.9543,2.9574,2.9599,2.9375,2.9379,2.9383,2.9539,0,2.8884,2.9017,2.9,2.9127,2.9187,2.9141,2.9207,2.9235,2.9238,2.929,2.9293,2.9352,2.9295,2.9312,2.9366,2.9371,2.9456,2.936,2.9434,2.9436,2.9425,2.9626,2.9659,2.9806,2.956,2.9563,2.9565,0,2.9084,2.9126,2.9259,2.9282,2.9307,2.9367,2.9415,2.9464,2.9495,2.9493,2.9526,2.95,2.9577,2.9503,2.9609,2.9544,2.9573,2.958,2.9585,2.959,2.9508,2.9635,2.9853,2.9874,2.9597,2.9595,2.9592,0,2.9224,2.9314,2.9405,2.9425,2.9455,2.9498,2.9513,2.9539,2.9572,2.9614,2.9635,2.9685,2.9713,2.9752,2.9741,2.9688,2.9849,2.9774,2.9849,2.9849,2.9883,2.9881,3.0108,2.9905,2.9904,2.9904,2.9904,0,2.9398,2.9482,2.9468,2.9524,2.9616,2.9596,2.9687,2.9696,2.972,2.9776,2.974,2.9794,2.9776,2.9829,2.9821,2.9909,2.9922,2.9922,2.9919,2.9925,2.9925,2.9943,2.9932,2.991,2.9909,2.9907,2.9906,0,2.957,2.9565,2.9661,2.9681,2.9688,2.9755,2.9772,2.9825,2.9825,2.9897,2.9913,2.9914,2.9974,2.9967,3.0035,3.0029,3.0138,3.0123,3.0128,3.0124,3.0199,3.0191,3.0443,3.0475,3.0253,3.0255,3.0257,0,2.9681,2.9744,2.9771,2.9806,2.9824,2.9881,2.9915,2.9898,2.9934,2.9973,3.0021,3.0079,3.0123,3.0223,3.0229,3.0281,3.0266,3.0351,3.0273,3.0277,3.0266,3.0262,3.0267,3.0365,3.0368,3.037,3.0372,0,2.9879,2.9873,2.9923,2.9972,3.0013,3.005,3.0084,3.0115,3.0101,3.0144,3.0205,3.024,3.0309,3.0367,3.0415,3.043,3.0399,3.0396,3.0416,3.0422,3.0422,3.0422,3.0168,3.039,3.0388,3.0387,3.0386,3.0385,3.0023,3.0076,3.0104,3.016,3.0184,3.0216,3.0266,3.0273,3.0323,3.0378,3.0365,3.0434,3.0463,3.0525,3.0545,3.0599,3.0568,3.0597,3.0604,3.0611,3.0619,3.0414,3.0608,3.0608,3.0607,3.0607,3.0606,0,3.0218,3.0234,3.0286,3.0334,3.0378,3.0345,3.0381,3.042,3.0481,3.051,3.0555,3.0625,3.0681,3.0692,3.0744,3.0785,3.0772,3.08,3.0796,3.08,3.0645,3.0622,3.0809,3.0809,3.0809,3.0809,3.0809,3.0809,3.0325,3.0413,3.041,3.0509,3.0524,3.0591,3.0614,3.0644,3.0667,3.0747,3.0793,3.0799,3.0821,3.0875,3.0925,3.0926,3.0947,3.098,3.0976,3.0831,3.0811,3.0791,3.0769,3.0985,3.0985,3.1126,3.1127,3.1128]},{"header":{"parameterUnit":"m.s-1","parameterCategory":1,"la1":30.2991,"la2":30.254,"lo1":-89.0895,"lo2":-89.0444,"dy":0.0017,"dx":0.0017,"nx":28,"ny":28,"refTime":"2024-08-10T21:00:00:Z","depth":0,"parameterNumber":3,"parameterNumberName":"V-component_of_WINDS"},"data":[0,0,0,0,0,0,0,0,0,0,0,0,0,0,0,0,0,0,0,0,0,0,0,0,0,0,0,0,0,0,0,0,0,0,0,0,0,0,0,0,0,0,0,0,0,0,0,0,0,0,0,0,0,0,0,0,0,0,-0.7276,-0.7277,0,-0.7365,-0.7366,-0.7367,-0.7416,-0.7416,-0.7416,-0.7416,-0.7507,-0.7509,-0.7511,0,0,0,0,0,0,0,0,0,0,0,0,0,-0.7149,-0.7151,-0.7276,-0.7277,-0.7278,-0.7365,-0.7366,-0.7367,-0.7416,-0.7416,-0.7416,-0.7416,-0.7506,-0.7509,-0.7511,0,0,0,0,0,0,0,0,0,0,0,0,0,-0.7218,-0.7152,-0.7276,-0.7313,-0.7317,-0.7365,-0.7366,-0.7368,-0.7416,-0.7416,-0.7416,-0.7416,-0.7505,-0.7508,-0.7512,-0.7529,0,0,-0.7522,-0.7524,0,0,0,0,0,0,0,0,-0.7214,-0.7222,-0.7306,-0.7311,-0.7315,-0.738,-0.7355,-0.7422,-0.7416,-0.7378,-0.7416,-0.7416,-0.7464,-0.7471,-0.7487,-0.7533,-0.7537,-0.7523,-0.7525,-0.7526,-0.7527,0,0,0,0,0,0,0,-0.7209,-0.7219,-0.7311,-0.7308,-0.7313,-0.7325,-0.7335,-0.7368,-0.7419,-0.7382,-0.7385,-0.7395,-0.7467,-0.7484,-0.749,-0.7539,-0.7523,-0.7526,-0.7528,-0.7529,-0.7605,-0.7605,0,0,0,0,0,0,-0.7198,-0.7214,-0.7309,-0.7314,-0.7264,-0.7327,-0.7339,-0.7359,-0.7419,-0.7428,-0.7395,-0.7397,-0.7478,-0.7486,-0.7493,-0.7518,-0.7526,-0.7529,-0.7531,-0.7605,-0.7605,-0.7605,0,0,0,0,0,0,-0.7195,-0.7206,-0.7305,-0.7265,-0.7279,-0.7329,-0.7352,-0.736,-0.7378,-0.7429,-0.7438,-0.7403,-0.7478,-0.7488,-0.752,-0.7522,-0.7531,-0.7534,-0.7605,-0.7605,-0.7605,-0.7568,0,0,0,0,0,0,-0.7191,-0.7205,-0.7212,-0.7265,-0.7281,-0.733,-0.7352,-0.7362,-0.7383,-0.7387,-0.7439,-0.7448,-0.7479,-0.7515,-0.7524,-0.7527,-0.7537,-0.7605,-0.7605,-0.7605,-0.757,-0.7567,-0.7565,0,0,0,0,0,-0.7187,-0.7197,-0.7212,-0.7223,-0.7291,-0.733,-0.7339,-0.7375,-0.7383,-0.7391,-0.7424,-0.7446,-0.752,-0.7518,-0.7528,-0.7532,-0.7605,-0.7605,-0.7605,-0.7571,-0.7567,-0.7565,0,0,0,0,0,0,-0.7143,-0.7205,-0.7222,-0.725,-0.7285,-0.7338,-0.7349,-0.7371,-0.7403,-0.7405,-0.7449,-0.746,-0.7488,-0.7514,-0.7509,-0.7553,-0.7565,-0.7567,-0.7536,-0.7533,-0.7531,-0.7524,-0.754,0,0,0,0,0,-0.7136,-0.7163,-0.7216,-0.7236,-0.7253,-0.7298,-0.7316,-0.7341,-0.7379,-0.7394,-0.7429,-0.7465,-0.7496,-0.7516,-0.7548,-0.7574,-0.7586,-0.7582,-0.7579,-0.7577,-0.7578,-0.7595,-0.7594,-0.7605,-0.7605,-0.7605,0,0,-0.7123,-0.7161,-0.7175,-0.7228,-0.7258,-0.7285,-0.731,-0.7337,-0.7358,-0.7398,-0.743,-0.7458,-0.75,-0.7529,-0.7544,-0.7551,-0.7578,-0.7577,-0.7575,-0.7577,-0.7595,-0.7594,-0.7593,-0.7605,-0.7605,-0.7605,0,0,-0.7114,-0.7144,-0.7165,-0.7194,-0.7239,-0.7269,-0.7274,-0.7325,-0.7345,-0.7378,-0.7409,-0.7434,-0.7487,-0.7517,-0.7539,-0.7541,-0.7563,-0.755,-0.7538,-0.7553,-0.7553,-0.7552,-0.7554,-0.7554,-0.7551,-0.7551,-0.7551,0,-0.7092,-0.7134,-0.7172,-0.7199,-0.7222,-0.7259,-0.7281,-0.7307,-0.736,-0.7375,-0.7383,-0.7451,-0.7482,-0.7519,-0.752,-0.7536,-0.7544,-0.7545,-0.755,-0.755,-0.755,-0.7552,-0.7552,-0.755,-0.755,-0.755,-0.755,0,-0.7105,-0.7134,-0.7145,-0.7196,-0.722,-0.7243,-0.7286,-0.7306,-0.7329,-0.7358,-0.7392,-0.7431,-0.7472,-0.7483,-0.7505,-0.7523,-0.7527,-0.7541,-0.7554,-0.7546,-0.7549,-0.755,-0.7547,-0.7548,-0.7548,-0.7549,0,0,-0.707,-0.7142,-0.7145,-0.7169,-0.7222,-0.7245,-0.7271,-0.7311,-0.7327,-0.7363,-0.7386,-0.743,-0.7445,-0.7469,-0.7496,-0.7509,-0.751,-0.7523,-0.7525,-0.752,-0.7534,-0.7522,-0.7523,-0.7525,-0.7525,-0.7525,-0.753,0,-0.7068,-0.7116,-0.7152,-0.7186,-0.7214,-0.725,-0.7273,-0.7307,-0.7336,-0.7364,-0.7395,-0.7426,-0.7442,-0.7458,-0.7473,-0.7507,-0.7514,-0.7507,-0.7547,-0.7548,-0.7536,-0.7524,-0.7512,-0.7515,-0.7531,-0.7532,-0.7532,0,-0.7072,-0.7107,-0.7144,-0.7194,-0.7207,-0.7227,-0.7267,-0.7293,-0.7334,-0.7354,-0.7382,-0.7409,-0.7438,-0.7449,-0.749,-0.7485,-0.7504,-0.7523,-0.7524,-0.7529,-0.754,-0.753,-0.7516,-0.7517,-0.7534,-0.7534,-0.7533,0,-0.7043,-0.7099,-0.7129,-0.7148,-0.7207,-0.7221,-0.7246,-0.7287,-0.7309,-0.7344,-0.7359,-0.7397,-0.7418,-0.7448,-0.7485,-0.7489,-0.7523,-0.7536,-0.754,-0.7539,-0.7546,-0.7545,-0.7536,-0.7557,-0.7557,-0.7557,-0.7557,0,-0.7038,-0.7059,-0.7117,-0.7135,-0.716,-0.7202,-0.7225,-0.7254,-0.729,-0.7315,-0.7349,-0.7372,-0.7419,-0.7448,-0.7477,-0.7508,-0.7517,-0.7534,-0.7541,-0.7531,-0.7529,-0.7544,-0.7545,-0.7557,-0.7557,-0.7557,-0.7557,0,-0.701,-0.7049,-0.7084,-0.7138,-0.7152,-0.7168,-0.7215,-0.7234,-0.7265,-0.7296,-0.7305,-0.7353,-0.7389,-0.7429,-0.7477,-0.7497,-0.7526,-0.7537,-0.7512,-0.7516,-0.7519,-0.7518,-0.752,-0.7522,-0.7541,-0.7541,-0.754,0,-0.7004,-0.7021,-0.7077,-0.7096,-0.7121,-0.7151,-0.7174,-0.7216,-0.7239,-0.7287,-0.7301,-0.7339,-0.7372,-0.7427,-0.7466,-0.7504,-0.7516,-0.7514,-0.7522,-0.7511,-0.7517,-0.7516,-0.7518,-0.7512,-0.7511,-0.7511,-0.7511,0,-0.6989,-0.7008,-0.704,-0.7079,-0.7106,-0.7138,-0.7172,-0.7186,-0.7235,-0.7259,-0.7296,-0.7321,-0.7371,-0.7409,-0.7452,-0.7479,-0.7503,-0.7508,-0.7511,-0.7501,-0.7486,-0.7495,-0.7506,-0.7508,-0.7508,-0.7508,-0.7508,-0.7508,-0.6973,-0.699,-0.7033,-0.7067,-0.7097,-0.7129,-0.715,-0.7183,-0.7215,-0.7259,-0.7282,-0.7318,-0.736,-0.742,-0.7446,-0.7476,-0.7484,-0.7488,-0.7489,-0.749,-0.7487,-0.7481,-0.7484,-0.7484,-0.7484,-0.7484,-0.7484,0,-0.696,-0.699,-0.7021,-0.7068,-0.7096,-0.7116,-0.7155,-0.7177,-0.7209,-0.7245,-0.7277,-0.732,-0.7357,-0.74,-0.744,-0.7456,-0.7468,-0.7465,-0.7464,-0.747,-0.7478,-0.7471,-0.7454,-0.7454,-0.7454,-0.7454,-0.7454,-0.7454,-0.6957,-0.6988,-0.7012,-0.7059,-0.7088,-0.7125,-0.7145,-0.7175,-0.7204,-0.7251,-0.7282,-0.7309,-0.7349,-0.7392,-0.7427,-0.7439,-0.7452,-0.7446,-0.7461,-0.7467,-0.7469,-0.7472,-0.7466,-0.7448,-0.7448,-0.7451,-0.7451,-0.7451]}]]